Weather Roundup
Issued by NWS Corpus Christi, TX

Home | Current Version | Previous Version | Text Only | Print | Product List | Glossary On
Versions: 1 2 3 4 5 6 7 8 9 10 11 12 13 14 15 16 17 18 19 20 21 22 23 24 25 26 27 28 29 30 31 32 33 34 35 36 37 38 39 40 41 42 43 44 45 46 47 48 49 50
000
ASUS44 KCRP 261010
HRRCRP

SOUTH TEXAS REGIONAL WEATHER ROUNDUP
NATIONAL WEATHER SERVICE CORPUS CHRISTI TX
400 AM CST SUN FEB 26 2017


TXZ229>244-261100-
...CORPUS CHRISTI AREA OBSERVATIONS...

CITY           SKY/WX    TMP DP  RH WIND       PRES   REMARKS
CORPUS CHRISTI MOCLDY    62  59  90 NE7       29.97F
NAS CORPUS CHR CLOUDY    65  64  97 E7        29.97S
ROCKPORT       CLOUDY    64  57  78 E8        29.98F
KINGSVILLE NAS CLOUDY    62  58  86 NE6       29.96F
ALICE          CLOUDY    59  52  77 NE7       29.97F
ORANGE GROVE   CLOUDY    57  53  86 E7        29.98F
FALFURRIAS     CLOUDY    59  55  85 N5        29.96S
$$

...VICTORIA AREA OBSERVATIONS...

CITY           SKY/WX    TMP DP  RH WIND       PRES   REMARKS
VICTORIA       PTCLDY    49  47  93 E7        29.99F
BEEVILLE       FAIR      51  51 100 E5        29.97F
PLEASANTON     CLEAR     43  39  86 CALM      29.97F
SAN ANTONIO    MOCLDY    46  38  73 NW3       29.98F
$$

...LAREDO AREA OBSERVATIONS...

CITY           SKY/WX    TMP DP  RH WIND       PRES   REMARKS
LAREDO         CLOUDY    59  54  83 E9        29.94F
COTULLA        CLEAR     51  42  71 SE8       29.95F
DEL RIO        CLOUDY    51  41  68 SE9       29.94F
MCALLEN        CLOUDY    66  58  75 NE6       29.93F
HEBBRONVILLE   CLOUDY    56  52  85 E6        29.96F
$$

...OTHER TEXAS OBSERVATIONS...

CITY           SKY/WX    TMP DP  RH WIND       PRES   REMARKS
BROWNSVILLE    CLEAR     68  65  90 E6        29.92F
HOUSTON        PTCLDY    45  36  70 SE3       30.03F
COL. STATION   CLEAR     47  32  56 E7        29.99F
AUSTIN         CLEAR     36  33  89 CALM      29.99S
WACO           CLEAR     40  32  73 E3        29.99F
FORT WORTH     PTCLDY    40  28  62 SE6       29.96F
WICHITA FALLS  CLEAR     33  26  75 SE6       29.92F
LUBBOCK        PTCLDY    33  25  72 SW6       29.82F
EL PASO        PTCLDY    45   6  20 CALM      29.91S
$$

...MARINE OBSERVATIONS...

STATION/POSITION TIME  SKY/WX   TEMP    WIND        PRES    VSBY  WAVE   SWELL
                                AIR SEA DIR/SP/G                  HT/PER HT/PER
                 (UTC)          (F)     (DEG/KT/KT) (MB)    (MI)  (FT/S) (FT/S)
PORT ARANSAS     0900            66 67   90/  7/  8 1015.1F
BUOY 90 E PORT A 0850            68 70  110/ 16/ 19 1015.8          4/ 6
BUOY 45 SE BAFFI 0850            71     130/ 17/ 21 1013.7          5/ 7   3/ 7
BUOY 200 E PT IS 0850            71 74  110/ 16/ 17 1015.7          5/ 7   2/11
BUOY 15 E GALVES 0850            64 65  100/ 14/ 16 1017.0          3/ 4
$$




USA.gov is the U.S. government's official web portal to all federal, state and local government web resources and services.